Regional Weather Roundup
Issued by NWS

Home | Current Version | Previous Version | Graphics & Text | Print | Product List | Glossary On
Versions: 1 2 3 4 5 6 7 8 9 10 11 12 13 14 15 16 17 18 19 20 21 22 23 24 25 26 27 28 29 30 31 32 33 34 35 36 37 38 39 40 41 42 43 44 45 46 47 48 49 50
000
ASUS43 KFSD 260210
RWRSD

WEATHER ROUNDUP FOR SOUTH DAKOTA
NATIONAL WEATHER SERVICE SIOUX FALLS SD
800 PM CST THU DEC 25 2014

NOTE: "FAIR" INDICATES FEW OR NO CLOUDS BELOW 12,000 FEET WITH NO
SIGNIFICANT WEATHER AND/OR OBSTRUCTIONS TO VISIBILITY.


SDZ001>005-009-010-012>017-260300-
NORTHWEST AND NORTH CENTRAL SOUTH DAKOTA

CITY           SKY/WX    TMP DP  RH WIND       PRES   REMARKS
BUFFALO          N/A     23  18  81 N17       29.88R WCI   9
FAITH            N/A     24  18  77 N14       29.94R WCI  12
MOBRIDGE       CLOUDY    28  22  78 NW8       29.91R WCI  20
$$

SDZ012>016-024>037-041>051-057-063-072>074-260300-
SOUTHWEST AND SOUTH CENTRAL SOUTH DAKOTA

CITY           SKY/WX    TMP DP  RH WIND       PRES   REMARKS
RAPID CTY ARPT FLURRIES  23  19  85 N17G26    29.93R WCI   9
PIERRE         MIX PCPN  27  22  81 N20       29.92R WCI  13
CUSTER         CLOUDY    18  12  77 NE7       29.77R WCI   9
ELLSWORTH AFB  DRIZZLE   23  19  86 N18       29.92  WCI   9
PHILIP         CLOUDY    27  22  81 N14       29.94R WCI  16
PINE RIDGE     LGT SNOW  25  20  81 N12       29.88R WCI  14
SPEARFISH      CLOUDY    19  18  93 NW9       29.93R WCI   9
WINNER         CLOUDY    27  24  89 N20       29.89R WCI  13
$$

SDZ004>011-016>023-039-040-260300-
NORTHEAST SOUTH DAKOTA

CITY           SKY/WX    TMP DP  RH WIND       PRES   REMARKS
ABERDEEN       CLOUDY    28  22  78 N13       29.92R WCI  17
WATERTOWN      LGT SNOW  26  23  88 N13       29.85R FOG     WCI  15
$$

SDZ017-020-022-023-036>040-048>070-260300-
SOUTHEAST SOUTH DAKOTA

CITY           SKY/WX    TMP DP  RH WIND       PRES   REMARKS
SIOUX FALLS    FRZ DRZL  31  30  96 NE15      29.79R FOG     WCI  20
HURON          LGT SNOW  26  24  92 N10       29.90R VSB 1   WCI  16
CHAMBERLAIN    LGT SNOW  26  24  93 N17G24    29.90R WCI  12
MITCHELL       MIX PCPN  27  25  92 N20       29.86S FOG     WCI  13
YANKTON        CLOUDY    34  28  80 N12       29.79R WCI  25
$$

ABBREVIATIONS USED IN REMARKS
   TC - TEMPERATURE IN CELSIUS
  WCI - WIND CHILL INDEX
   HX - HEAT INDEX
  VSB - VISIBILITY




USA.gov is the U.S. government's official web portal to all federal, state and local government web resources and services.